EHI
0 0 0 0 0 0 0 0 0 0 0 0 0 0 0 0 0 0 0 0 0 0 0 0 0 0 0 0 0 0 0 0 0 0 0 0 0 0
0 0 0 0 0 0 0 0 0 0 0 0 0 0 0 0 0 0 0 0 0 0 0 0 0 0 0 0 0 0 0 0 0 0 0 0 0 0
0 0 0 0 0 0 0 0 0 0 0 0 0 0 0 0 0 0 0 0 0 0 0 0 0 0 0 0 0 0 0 0 0 0 0 0 0 0
0 0 0 0 0 0 0 0 0 0 0 0 0 0 0 0 0 0 0 0 0 0 0 0 0 0 0 0 0 0 0 0 0 0 0 0 0 0
0 0 0 0 0 0 0 0 0 0 0 0 0 0 0 0 0 0 0 0 0 0 0 0 0 0 0 0 0 0 0 0 0 0 0 0 0 0
0 0 0 0 0 0 0 0 0 0 0 0 0 0 0 0 0 0 0 0 0 0 0 0 0 0 0 0 0 0 0 0 0 0 0 0 0 0
0 0 0 0 0 0 0 0 0 0 0 0 0 0 0 0 0 0 0 0 0 0 0 0 0 0 0 0 0 0 0 0 0 0 0 0 0 0
0 0 0 0 0 0 0 0 0 0 0 0 0 0 0 0 0 0 0 0 0 0 0 0 0 0 0 0 0 0 0 0 0 0 0 0 0 0
0 0 0 0 0 0 0 0 0 0 0 0 0 0 0 0 0 0 0 0 0 0 0 0 0 0 0 0 0 0 0 0 0 0 0 0 0 0
0 0 0 0 0 0 0 0 0 0 0 0 0 0 0 0 0 0 0 0 0 0 0 0 0 0 0 0 0 0 0 0 0 0 0 0 0 0
0 0 0 0 0 0 0 0 0 0 0 0 0 0 0 0 0 0 0 0 0 0 0 0 0 0 0 0 0 0 0 0 0 0 0 0 0 0
0 0 0 0 0 0 0 0 0 0 0 0 0 0 0 0 0 0 0 0 0 0 0 0 0 0 0 0 0 0 0 0 0 0 0 0 0 0
0 0 0 0 0 0 0 0 0 0 0 0 0 0 0 0 0 0 0 0 0 0 0 0 0 0 0 0 0 0 0 0 0 0 0 0 0 0
0 0 0 0 0 0 0 0 0 0 0 0 0 0 0 0 0 0 0 0 0 0 0 0 0 0 0 0 0 0 0 0 0 0 0 0 0 0
0 0 0 0 0 0 0 0 0 0 0 0 0 0 0 0 0 0 0 0 0 0 0 0 0 0 0 0 0 0 0 0 0 0 0 0 0 0
0 0 0 0 0 0 0 0 0 0 0 0 0 0 0 0 0 0 0 0 0 0 0 0 0 0 0 0 0 0 0 0 0 0 0 0 0 0
0 0 0 0 0 0 0 0 0 0 0 0 0 0 0 0 0 0 0 0 0 0 0 0 0 0 0 0 0 0 0 0 0 0 0 0 0 0
0 0 0 0 0 0 0 0 0 0 0 0 0 0 0 0 0 0 0 0 0 0 0 0 0 0 0 0 0 0 0 0 0 0 0 0 0 0
0 0 0 0 0 0 0 0 0 0 0 0 0 0 0 0 0 0 0 0 0 0 0 0 0 0 0 0 0 0 0 0 0 0 0 0 0 0
0 0 0 0 0 0 0 0 0 0 0 0 0 0 0 0 0 0 0 0 0 0 0 0 0 0 0 0 0 0 0 0 0 0 0 0 0 0
0 0 0 0 0 0 0 0 0 0 0 0 0 0 0 0 0 0 0 0 0 0 0 0 0 0 0 0 0 0 0 0 0 0 0 0 0 0
0 0 0 0 0 0 0 0 0 0 0 0 0 0 0 0 0 0 0 0 0 0 0 0 0 0 0 0 0 0 0 0 0 0 0 0 0 0
0 0 0 0 0 0 0 0 0 0 0 0 0 0 0 0 0 0 0 0 0 0 0 0 0 0 0 0 0 0 0 0 0 0 0 0 0 0
Wind_Speed
3 2 2 2 2 1 1 2 2 2 3 2 1 1 1 1 2 2 2 5 5 5 6 6 6 5 6 6 6 6 6 6 6 6 6 6 6 6
2 3 3 2 2 2 2 2 2 3 3 2 2 1 1 2 4 2 3 6 6 6 6 6 6 6 6 7 6 6 6 7 7 7 7 7 7 7
2 3 3 3 2 2 2 2 2 2 4 3 2 1 2 2 3 3 3 4 4 7 7 7 7 7 7 8 7 7 7 7 7 7 8 8 8 8
3 3 3 3 3 3 2 3 3 3 3 5 3 2 3 3 3 3 3 3 3 6 7 8 8 8 8 8 8 8 8 7 8 8 8 9 9 8
3 4 4 3 4 3 3 3 3 3 2 3 3 2 2 2 3 3 4 3 4 5 7 8 9 9 9 9 8 8 8 8 8 8 9 9 9 9
3 4 4 4 4 4 4 4 3 3 3 3 3 3 3 2 2 2 4 3 4 3 5 6 8 9 9 10 9 8 9 9 9 9 9 9 9 9
3 4 4 5 6 5 5 4 4 3 3 3 4 3 3 2 3 2 4 3 4 3 2 3 4 4 5 8 9 10 10 10 10 10 10 10 10 9
4 4 5 5 6 8 9 9 7 5 5 4 4 5 5 4 3 3 3 3 4 2 3 4 3 4 4 4 8 10 10 10 10 10 10 10 10 10
4 4 4 4 5 4 7 8 8 9 9 6 6 6 5 4 4 4 4 4 5 3 2 5 3 5 4 6 10 10 10 10 10 10 11 11 10 10
4 5 5 5 5 5 4 4 5 5 6 5 5 5 5 5 5 5 5 5 4 3 3 5 4 4 4 4 9 11 11 11 11 11 11 11 11 10
4 4 5 5 7 8 5 5 5 5 7 8 9 8 10 10 7 3 3 3 5 4 3 3 3 3 3 4 6 10 11 11 11 11 12 11 11 10
3 4 6 6 8 8 5 5 6 5 4 5 6 7 6 7 8 5 4 4 4 4 3 2 2 1 3 3 3 4 5 8 11 11 11 11 10 6
3 3 3 7 8 8 6 4 7 6 4 4 4 4 4 3 4 4 3 4 4 5 3 2 2 2 3 3 3 3 3 3 4 5 8 10 10 8
3 3 4 8 9 9 7 7 9 7 3 3 4 4 3 3 3 3 4 4 5 5 4 3 3 3 3 4 4 2 2 3 3 3 3 7 8 9
3 6 7 9 9 6 8 9 6 3 3 3 4 4 3 3 3 3 3 4 4 4 4 4 4 4 4 5 4 3 3 3 3 3 3 4 4 4
4 6 8 8 7 7 6 5 3 3 3 4 3 3 3 3 3 3 3 3 3 4 4 4 4 5 5 5 5 5 4 4 3 3 4 4 4 4
3 2 2 3 3 3 3 3 3 3 3 3 3 3 3 3 3 3 3 3 4 4 4 3 3 4 5 5 5 5 4 4 4 4 4 4 5 4
4 2 3 3 3 3 3 3 2 3 3 3 3 3 3 3 3 3 3 3 4 4 4 3 2 3 4 4 6 6 5 4 4 4 4 5 6 4
3 3 3 3 3 3 3 3 3 3 2 3 3 3 3 3 3 4 4 4 5 5 4 3 3 4 5 6 4 5 5 4 3 3 4 4 6 5
2 3 3 3 3 3 3 3 3 2 2 3 3 3 3 3 4 4 4 4 5 5 4 4 4 4 6 6 5 4 5 5 4 5 5 4 5 7
3 3 3 3 3 3 3 3 3 3 3 3 3 3 3 3 4 4 5 7 6 5 6 5 5 6 4 3 4 5 4 6 6 5 5 4 5 5
3 4 4 4 3 3 3 3 3 3 3 3 3 3 3 3 4 5 5 5 5 5 6 5 4 3 3 5 6 6 5 4 5 8 9 8 5 5
4 4 4 4 4 3 3 3 4 3 3 3 3 3 3 4 4 4 5 5 6 6 6 5 4 4 5 5 6 5 6 6 4 4 5 8 11 12
Wind_Direction
228 231 236 247 247 243 242 193 190 231 255 243 234 216 211 227 262 268 254 252 257 262 268 269 269 269 271 275 280 280 286 291 283 278 280 281 280 279
232 225 237 242 241 237 237 225 202 210 245 253 250 257 265 269 270 268 265 260 254 257 262 264 261 260 263 266 271 275 277 282 280 275 273 276 276 274
243 230 239 236 234 235 231 226 225 212 242 272 279 282 265 266 277 270 262 250 240 248 257 257 256 258 259 260 263 267 268 272 273 271 272 273 275 273
248 237 240 243 243 239 232 233 231 224 227 255 269 267 261 255 257 265 273 261 239 246 254 257 256 256 258 257 257 260 261 266 268 267 269 271 271 273
246 242 242 239 246 245 236 234 237 244 234 246 265 266 268 265 269 272 274 268 254 248 251 254 255 257 258 258 256 257 259 262 263 263 266 269 271 271
252 249 245 239 242 243 241 237 236 239 240 244 257 263 265 267 257 271 279 267 258 252 255 260 259 260 259 254 254 257 261 263 261 259 262 266 270 271
262 258 254 252 253 252 249 239 234 234 233 239 249 255 252 256 249 254 266 276 267 240 233 249 250 246 246 251 251 254 259 259 257 257 259 262 266 269
271 269 264 256 257 259 260 258 251 240 232 231 242 248 251 249 250 250 255 274 274 241 225 252 244 244 239 232 248 255 257 259 259 259 260 261 263 266
265 266 267 265 262 258 263 266 263 260 250 239 240 247 253 250 249 255 256 256 260 254 262 264 241 243 240 244 248 252 256 257 258 260 262 262 263 266
265 262 262 261 255 257 260 263 260 260 262 258 252 256 261 257 248 251 254 269 278 260 234 258 250 247 252 242 248 250 252 253 256 260 262 263 265 266
271 268 267 264 266 263 256 259 266 270 272 272 272 273 271 270 263 263 262 264 272 267 235 239 254 269 258 246 244 249 252 252 256 259 262 264 266 267
276 275 276 278 279 271 251 245 256 265 271 280 280 282 280 275 270 249 237 249 265 268 233 227 253 268 279 255 238 236 243 256 262 264 264 267 269 263
272 272 277 282 281 278 270 253 260 268 260 264 270 271 269 265 264 260 251 248 252 257 251 240 258 247 249 281 277 252 234 240 247 256 262 268 270 267
274 278 278 284 283 281 275 276 281 277 256 254 260 263 263 262 264 262 259 261 259 259 256 247 253 245 247 266 273 268 253 249 244 248 245 267 271 273
281 283 283 282 283 280 279 282 281 274 262 255 255 259 261 262 265 271 268 267 272 269 262 254 251 251 242 250 260 262 273 265 242 240 245 248 249 252
288 287 290 290 287 284 282 278 265 256 259 257 259 262 264 261 260 261 266 264 266 271 268 259 252 249 255 255 252 259 249 247 242 240 244 254 256 250
290 284 286 294 288 287 280 271 267 265 263 257 258 262 261 260 263 260 261 266 259 264 268 266 259 257 256 252 254 251 251 251 244 239 246 259 260 253
287 272 271 273 273 276 277 274 271 271 272 270 265 263 265 266 269 269 262 261 263 261 262 263 272 287 286 275 243 246 248 252 249 245 243 254 265 259
274 262 261 263 267 270 275 272 271 271 270 270 268 266 268 269 269 270 267 267 269 266 262 256 252 253 265 273 270 241 246 253 254 253 248 250 261 263
270 266 264 264 265 264 267 271 271 272 271 271 268 265 264 268 271 270 268 264 270 274 270 258 245 243 248 260 270 273 258 248 244 254 259 261 265 273
268 267 265 263 265 266 265 266 264 264 267 268 267 264 264 264 267 269 269 272 270 269 266 262 256 268 269 263 266 268 262 255 256 253 252 260 270 268
270 264 265 261 260 261 263 263 262 261 263 263 264 264 263 263 265 265 266 268 266 265 269 272 269 266 254 250 258 266 274 278 275 274 265 251 244 244
277 274 274 268 261 258 257 258 258 260 260 261 265 266 264 264 266 268 270 269 270 269 272 275 272 262 256 251 256 263 268 269 269 273 272 271 270 270